Date,TemperatureHighF,TemperatureAvgF,TemperatureLowF,DewpointHighF,DewpointAvgF,DewpointLowF,HumidityHigh,HumidityAvg,HumidityLow,PressureMaxIn,PressureMinIn,WindSpeedMaxMPH,WindSpeedAvgMPH,GustSpeedMaxMPH,PrecipitationSumIn
2013-1-1,36.0,27.5,19.0,36.0,26.9,16.0,100,97,92,30.22,30.03,12,6,16,0.00
2013-1-2,34.0,22.9,12.0,23.0,17.8,10.0,92,82,59,30.23,30.14,8,2,0,0.00
2013-1-3,39.0,29.6,21.0,30.0,23.5,18.0,92,78,55,30.39,30.21,6,1,0,0.00
2013-1-4,46.0,32.5,19.0,28.0,23.9,18.0,92,72,42,30.41,30.28,10,3,16,0.00
2013-1-5,43.0,36.1,28.0,34.0,28.7,21.0,86,74,64,30.28,30.13,16,6,22,0.00
2013-1-6,43.0,32.9,27.0,30.0,23.5,19.0,92,70,44,30.34,30.19,10,3,0,0.00
2013-1-7,50.0,36.6,27.0,30.0,24.6,19.0,79,62,39,30.31,30.08,14,8,24,0.00
2013-1-8,55.0,43.8,30.0,46.0,34.7,23.0,100,71,50,30.18,30.04,17,7,23,0.00
2013-1-9,54.0,48.6,45.0,46.0,43.5,37.0,100,84,57,30.33,30.18,16,-22,27,0.00
2013-1-10,55.0,49.3,45.0,54.0,46.6,37.0,100,91,57,30.22,29.82,20,12,30,0.00
2013-1-11,63.0,54.8,45.0,48.0,46.0,45.0,100,75,55,29.86,29.73,24,16,36,0.00
2013-1-12,59.0,40.6,25.0,48.0,33.6,23.0,100,77,43,29.98,29.80,20,8,30,0.00
2013-1-13,25.0,19.9,12.0,23.0,16.1,9.0,92,85,73,30.31,29.96,0,0,0,0.00
2013-1-14,27.0,18.3,9.0,21.0,13.9,5.0,92,82,73,30.42,30.28,0,0,0,0.00
2013-1-15,28.0,21.6,14.0,23.0,16.6,10.0,92,81,68,30.29,30.13,0,0,0,0.00
2013-1-16,39.0,26.6,14.0,25.0,18.1,10.0,92,71,48,30.15,30.07,8,1,0,0.00
2013-1-17,46.0,35.5,27.0,34.0,26.7,19.0,92,71,49,30.44,30.13,14,5,20,0.00
2013-1-18,55.0,41.0,28.0,34.0,28.5,25.0,86,63,34,30.44,30.16,20,11,28,0.00
2013-1-19,61.0,49.1,43.0,39.0,34.2,28.0,75,57,41,30.19,30.06,16,9,27,0.00
2013-1-20,57.0,42.0,27.0,36.0,27.8,18.0,75,58,37,30.26,30.14,17,8,24,0.00
2013-1-21,34.0,26.5,19.0,16.0,12.8,10.0,67,56,43,30.35,30.25,13,7,16,0.00
2013-1-22,43.0,28.6,19.0,25.0,17.3,10.0,73,62,48,30.29,30.18,10,3,17,0.00
2013-1-23,57.0,40.0,25.0,45.0,31.5,19.0,81,72,61,30.25,30.14,13,3,18,0.00
2013-1-24,39.0,33.9,30.0,28.0,18.8,12.0,64,54,46,30.30,30.10,17,12,24,0.00
2013-1-25,46.0,36.5,30.0,30.0,27.1,18.0,92,69,48,30.23,30.09,8,2,0,0.00
2013-1-26,59.0,47.0,36.0,28.0,25.0,21.0,69,44,26,30.24,30.11,16,8,25,0.00
2013-1-27,61.0,52.7,45.0,57.0,47.9,21.0,93,84,34,30.12,29.90,28,16,41,0.00
2013-1-28,72.0,66.0,61.0,64.0,61.5,57.0,93,85,68,29.96,29.81,27,19,40,0.00
2013-1-29,70.0,59.2,43.0,63.0,56.7,43.0,100,91,72,29.82,29.49,33,0,44,0.00
2013-1-30,43.0,31.3,25.0,43.0,27.0,18.0,100,84,68,30.01,29.49,20,10,29,0.00
2013-1-31,39.0,28.1,16.0,27.0,19.6,7.0,86,70,60,30.38,29.98,20,8,25,0.00
2013-2-1,39.0,23.4,10.0,19.0,10.7,3.0,78,59,40,30.40,30.14,10,4,0,0.00
2013-2-2,52.0,38.6,27.0,36.0,26.8,16.0,75,62,49,30.22,30.12,12,4,16,0.00
2013-2-3,52.0,42.8,34.0,30.0,27.0,21.0,74,54,32,30.26,29.96,14,7,22,0.00
2013-2-4,61.0,49.8,37.0,45.0,36.1,27.0,87,60,41,29.96,29.84,17,9,25,0.00
2013-2-5,61.0,47.0,34.0,45.0,34.5,30.0,93,64,38,30.06,29.91,12,3,17,0.00
2013-2-6,64.0,53.0,41.0,43.0,36.5,30.0,70,54,44,30.08,29.94,16,10,28,0.00
2013-2-7,54.0,49.9,41.0,52.0,47.5,39.0,100,91,66,30.10,29.87,16,8,23,0.00
2013-2-8,46.0,38.3,30.0,39.0,32.4,28.0,93,79,61,30.27,30.09,17,8,22,0.00
2013-2-9,46.0,39.5,32.0,43.0,32.4,28.0,100,77,49,30.18,29.79,20,11,32,0.00
2013-2-10,57.0,50.6,39.0,54.0,40.1,27.0,100,71,37,30.03,29.63,24,16,39,0.00
2013-2-11,50.0,38.9,30.0,28.0,26.9,25.0,80,62,39,30.18,30.02,8,1,0,0.00
2013-2-12,43.0,36.4,32.0,36.0,29.7,25.0,100,77,60,30.13,29.92,9,6,0,0.00
2013-2-13,48.0,37.3,30.0,39.0,33.9,30.0,100,88,65,29.99,29.91,13,-80,18,0.00
2013-2-14,54.0,43.2,34.0,36.0,31.7,25.0,80,64,46,30.15,29.92,10,4,15,0.00
2013-2-15,43.0,33.2,27.0,30.0,20.8,12.0,92,61,40,30.32,30.15,13,6,20,0.00
2013-2-16,36.0,30.8,25.0,27.0,20.3,14.0,92,67,47,30.29,30.08,10,6,15,0.00
2013-2-17,63.0,47.0,30.0,34.0,26.3,16.0,59,45,31,30.08,29.80,23,11,40,0.00
2013-2-18,57.0,49.2,32.0,54.0,40.0,25.0,100,71,43,30.10,29.61,30,18,43,0.00
2013-2-19,43.0,32.4,25.0,25.0,18.9,14.0,79,58,38,30.29,30.10,13,-137,18,0.00
2013-2-20,34.0,30.1,27.0,28.0,17.5,12.0,86,60,50,30.27,30.04,15,8,21,0.00
2013-2-21,34.0,30.4,28.0,34.0,28.2,19.0,100,92,63,30.05,29.66,18,4,30,0.00
2013-2-22,34.0,26.3,19.0,34.0,21.9,18.0,100,83,74,30.08,29.83,0,0,0,0.00
2013-2-23,41.0,28.7,19.0,27.0,22.2,16.0,92,76,52,30.07,29.94,5,1,0,0.00
2013-2-24,57.0,42.7,28.0,37.0,31.8,23.0,86,66,41,29.98,29.82,14,7,22,0.00
2013-2-25,39.0,36.8,32.0,36.0,32.8,30.0,100,85,69,29.88,29.46,22,14,31,0.00
2013-2-26,34.0,32.6,30.0,30.0,30.0,30.0,100,91,86,29.86,29.39,12,6,20,0.00
2013-2-27,36.0,32.3,30.0,30.0,27.9,27.0,92,84,74,30.05,29.81,15,9,18,0.00
2013-2-28,34.0,30.6,28.0,28.0,26.8,25.0,92,84,74,30.17,30.04,12,7,16,0.00
2013-3-1,30.0,27.9,27.0,27.0,23.1,21.0,92,81,74,30.23,30.13,12,6,16,0.00
2013-3-2,36.0,28.3,25.0,23.0,20.4,19.0,86,73,51,30.29,30.16,12,5,0,0.00
2013-3-3,57.0,41.4,25.0,37.0,28.1,19.0,79,60,43,30.16,29.76,17,10,25,0.00
2013-3-4,64.0,53.1,43.0,46.0,39.7,32.0,71,60,48,29.85,29.62,21,10,28,0.00
2013-3-5,43.0,36.6,30.0,34.0,25.9,19.0,100,67,45,30.28,29.85,18,12,28,0.00
2013-3-6,45.0,33.1,21.0,27.0,22.5,16.0,85,65,48,30.37,30.22,15,4,16,0.00
2013-3-7,63.0,47.7,36.0,30.0,27.3,25.0,69,48,23,30.23,30.12,17,8,23,0.00
2013-3-8,63.0,52.8,43.0,41.0,35.1,30.0,71,52,38,30.21,30.03,20,12,30,0.00
2013-3-9,66.0,57.6,48.0,57.0,47.4,37.0,100,70,52,30.04,29.70,24,14,33,0.00
2013-3-10,54.0,43.4,30.0,54.0,42.6,27.0,100,97,87,29.93,29.65,20,10,29,0.00
2013-3-11,43.0,33.0,27.0,28.0,24.5,21.0,100,73,41,30.01,29.89,14,-6,23,0.00
2013-3-12,52.0,40.3,28.0,36.0,27.6,21.0,80,61,43,30.30,29.99,13,5,17,0.00
2013-3-13,50.0,37.5,25.0,27.0,22.9,19.0,86,57,34,30.44,30.30,9,-55,0,0.00
2013-3-14,70.0,52.8,37.0,45.0,33.5,21.0,62,48,35,30.33,30.10,23,10,30,0.00
2013-3-15,77.0,63.7,48.0,52.0,46.8,43.0,81,56,33,30.11,29.79,21,10,29,0.00
2013-3-16,66.0,57.5,45.0,52.0,45.5,37.0,76,65,51,29.89,29.77,18,12,27,0.00
2013-3-17,45.0,39.6,37.0,41.0,38.2,36.0,100,95,75,29.90,29.69,18,11,27,0.00
2013-3-18,54.0,44.4,37.0,43.0,36.7,27.0,100,78,34,30.04,29.69,13,6,22,0.00
2013-3-19,52.0,42.0,34.0,30.0,24.9,18.0,74,52,27,30.24,30.03,15,6,22,0.00
2013-3-20,45.0,36.4,30.0,32.0,22.6,16.0,92,61,30,30.34,30.10,16,-128,23,0.00
2013-3-21,39.0,33.9,30.0,30.0,20.1,12.0,92,60,32,30.10,29.81,15,11,24,0.00
2013-3-22,37.0,35.3,32.0,37.0,33.8,30.0,100,93,86,29.92,29.82,12,6,16,0.00
2013-3-23,39.0,37.2,36.0,39.0,36.8,34.0,100,99,93,29.92,29.72,13,8,17,0.00
2013-3-24,37.0,31.0,25.0,37.0,28.8,19.0,100,92,73,30.09,29.65,16,9,25,0.00
2013-3-25,34.0,27.0,21.0,25.0,20.1,16.0,85,75,59,30.29,30.07,15,8,22,0.00
2013-3-26,43.0,31.5,21.0,27.0,22.2,19.0,92,70,45,30.39,30.27,12,1,0,0.00
2013-3-27,57.0,43.4,30.0,28.0,24.6,19.0,74,49,28,30.28,30.14,16,7,24,0.00
2013-3-28,66.0,56.6,46.0,50.0,40.2,28.0,67,54,46,30.20,30.11,14,8,20,0.00
2013-3-29,68.0,58.2,52.0,55.0,51.8,48.0,100,79,59,30.19,30.10,10,5,0,0.00
2013-3-30,68.0,58.5,54.0,57.0,53.1,-99.9,100,86,68,30.11,29.89,13,5,20,0.00
2013-3-31,64.0,56.1,46.0,54.0,46.9,37.0,100,75,36,29.99,29.87,16,-171,23,0.00
2013-4-1,54.0,45.8,39.0,43.0,37.8,30.0,86,74,61,30.19,29.97,16,-237,23,0.00
2013-4-2,39.0,37.0,36.0,36.0,33.3,28.0,93,86,64,30.25,30.18,12,8,18,0.00
2013-4-3,52.0,42.8,36.0,34.0,29.3,25.0,93,60,40,30.24,30.15,14,8,21,0.00
2013-4-4,55.0,47.1,39.0,37.0,33.8,30.0,86,61,40,30.15,30.07,9,2,0,0.00
2013-4-5,68.0,53.1,37.0,45.0,36.9,30.0,86,56,32,30.19,29.98,10,3,0,0.00
2013-4-6,72.0,61.2,54.0,54.0,45.7,36.0,72,57,44,29.98,29.81,25,14,43,0.00
2013-4-7,73.0,63.9,54.0,61.0,55.9,48.0,100,75,56,29.93,29.76,21,9,32,0.00
2013-4-8,72.0,65.1,59.0,64.0,60.2,55.0,100,83,73,29.81,29.74,22,12,37,0.00
2013-4-9,75.0,69.7,64.0,66.0,61.8,57.0,88,75,60,29.79,29.72,18,12,30,0.00
2013-4-10,72.0,45.5,36.0,63.0,44.4,36.0,100,97,73,29.91,29.74,21,7,25,0.00
2013-4-11,48.0,38.8,34.0,36.0,32.7,30.0,100,80,57,29.88,29.76,14,8,21,0.00
2013-4-12,54.0,42.6,34.0,37.0,33.3,28.0,86,70,50,30.03,29.79,12,3,17,0.00
2013-4-13,68.0,53.0,39.0,48.0,41.2,34.0,86,65,45,30.05,29.79,16,5,22,0.00
2013-4-14,75.0,65.6,55.0,59.0,49.9,45.0,93,58,40,29.80,29.56,25,13,37,0.00
2013-4-15,75.0,60.0,50.0,66.0,53.2,39.0,100,78,61,29.88,29.70,18,9,23,0.00
2013-4-16,61.0,51.7,48.0,57.0,50.2,46.0,100,95,82,30.01,29.87,16,11,23,0.00
2013-4-17,79.0,67.6,48.0,72.0,63.5,48.0,100,87,65,29.97,29.63,24,12,32,0.00
2013-4-18,73.0,47.9,37.0,68.0,44.9,28.0,100,89,69,29.99,29.56,23,10,32,0.00
2013-4-19,54.0,42.7,32.0,34.0,28.8,25.0,80,59,37,30.09,29.97,15,8,23,0.00
2013-4-20,64.0,51.6,37.0,41.0,35.8,30.0,86,57,36,30.19,30.08,10,3,0,0.00
2013-4-21,66.0,57.6,52.0,45.0,41.0,39.0,71,55,37,30.25,30.13,20,9,31,0.00
2013-4-22,70.0,59.4,46.0,50.0,43.7,39.0,76,56,40,30.18,29.90,16,9,25,0.00
2013-4-23,64.0,46.0,36.0,54.0,43.5,36.0,100,92,51,30.11,29.85,17,10,25,0.00
2013-4-24,52.0,41.4,34.0,37.0,33.7,28.0,100,76,46,30.29,30.11,10,4,22,0.00
2013-4-25,66.0,51.8,34.0,43.0,35.0,28.0,86,56,32,30.35,30.20,13,-26,0,0.00
2013-4-26,59.0,50.4,48.0,50.0,45.2,36.0,100,85,41,30.30,30.10,17,10,27,0.00
2013-4-27,54.0,51.1,48.0,54.0,51.1,48.0,100,100,100,30.13,30.01,12,3,16,0.00
2013-4-28,73.0,58.7,48.0,57.0,52.4,48.0,100,82,53,30.04,29.89,8,-15,0,0.00
2013-4-29,81.0,67.2,55.0,68.0,58.6,52.0,93,75,54,29.90,29.78,18,9,25,0.00
2013-4-30,79.0,71.0,61.0,64.0,57.6,52.0,93,65,41,29.88,29.81,18,10,32,0.00
2013-5-1,81.0,70.4,61.0,66.0,61.4,54.0,100,74,54,30.08,29.88,13,6,20,0.00
2013-5-2,63.0,45.5,32.0,61.0,43.9,30.0,100,94,87,30.27,30.06,17,10,24,0.00
2013-5-3,43.0,36.2,32.0,37.0,34.0,30.0,100,91,70,30.26,29.93,15,8,23,0.00
2013-5-4,45.0,38.2,34.0,37.0,35.8,32.0,100,92,75,30.00,29.84,9,-40,0,0.00
2013-5-5,55.0,46.1,36.0,52.0,43.1,34.0,100,90,71,30.10,29.99,8,-318,0,0.00
2013-5-6,61.0,51.9,48.0,54.0,50.5,48.0,100,95,76,30.11,30.03,9,3,0,0.00
2013-5-7,73.0,61.9,46.0,59.0,52.6,46.0,100,74,49,30.11,30.01,5,0,0,0.00
2013-5-8,75.0,64.3,57.0,64.0,57.0,52.0,100,77,53,30.11,29.92,15,4,21,0.00
2013-5-9,73.0,64.7,57.0,66.0,61.6,57.0,100,90,77,29.98,29.89,16,4,24,0.00
2013-5-10,64.0,59.1,52.0,61.0,55.7,-99.9,100,94,72,30.07,29.92,9,4,0,0.00
2013-5-11,72.0,58.6,46.0,63.0,50.3,39.0,100,76,45,30.22,30.07,15,-54,22,0.00
2013-5-12,64.0,53.1,41.0,52.0,40.8,34.0,100,65,39,30.29,30.17,8,-238,0,0.00
2013-5-13,79.0,63.5,48.0,63.0,53.7,45.0,93,71,50,30.17,30.05,14,4,22,0.00
2013-5-14,84.0,69.6,63.0,70.0,60.4,54.0,93,73,48,30.06,29.97,14,-16,23,0.00
2013-5-15,73.0,67.6,63.0,73.0,64.5,57.0,100,90,68,30.01,29.88,13,8,21,0.00
2013-5-16,68.0,59.1,61.0,66.0,41.6,-99.9,100,100,93,29.92,29.85,7,3,0,0.00
2013-5-17,81.0,66.4,57.0,72.0,59.9,-99.9,100,92,69,29.96,29.88,6,0,0,0.00
2013-5-18,82.0,73.9,64.0,79.0,71.9,64.0,100,94,83,29.95,29.81,12,6,18,0.00
2013-5-19,84.0,76.0,68.0,73.0,68.6,64.0,100,79,54,29.90,29.67,20,9,27,0.00
2013-5-20,75.0,67.0,61.0,73.0,66.2,61.0,100,97,83,29.85,29.73,12,6,22,0.00
2013-5-21,66.0,61.7,57.0,66.0,61.6,57.0,100,99,88,29.89,29.60,17,4,30,0.00
2013-5-22,72.0,62.1,54.0,63.0,59.0,54.0,100,90,68,29.97,29.81,7,1,0,0.00
2013-5-23,73.0,62.9,54.0,64.0,59.1,54.0,100,88,68,30.17,29.96,10,4,0,0.00
2013-5-24,75.0,64.0,55.0,66.0,59.6,55.0,100,86,73,30.29,30.17,13,7,21,0.00
2013-5-25,81.0,69.3,55.0,72.0,64.4,55.0,100,85,69,30.23,30.08,12,6,17,0.00
2013-5-26,81.0,72.4,64.0,75.0,69.6,64.0,100,91,78,30.13,30.00,16,7,23,0.00
2013-5-27,81.0,73.6,66.0,75.0,70.3,64.0,100,90,78,30.02,29.81,20,11,31,0.00
2013-5-28,79.0,74.0,72.0,72.0,70.3,66.0,100,88,73,29.89,29.78,17,12,29,0.00
2013-5-29,79.0,73.9,70.0,72.0,68.8,66.0,94,84,78,29.90,29.77,21,11,30,0.00
2013-5-30,79.0,67.6,61.0,73.0,66.3,61.0,100,96,83,29.84,29.75,20,10,36,0.00
2013-5-31,82.0,72.9,63.0,77.0,70.8,63.0,100,94,78,29.85,29.71,15,8,25,0.00
2013-6-1,75.0,67.3,61.0,70.0,63.5,-99.9,100,91,73,30.02,29.71,15,4,23,0.00
2013-6-2,64.0,59.6,54.0,61.0,57.7,54.0,100,94,82,30.09,30.00,9,3,0,0.00
2013-6-3,75.0,62.5,48.0,64.0,57.4,48.0,100,84,60,30.06,29.93,7,1,0,0.00
2013-6-4,75.0,67.0,61.0,68.0,64.2,61.0,100,91,78,30.01,29.92,10,5,15,0.00
2013-6-5,75.0,68.1,63.0,70.0,66.1,63.0,100,92,83,30.01,29.90,8,6,0,0.00
2013-6-6,72.0,65.4,59.0,64.0,61.9,57.0,100,89,64,29.97,29.93,8,1,0,0.00
2013-6-7,73.0,63.8,54.0,63.0,56.8,54.0,100,80,53,30.02,29.94,8,-140,0,0.00
2013-6-8,79.0,67.4,55.0,66.0,60.1,54.0,100,78,61,29.98,29.86,9,-102,0,0.00
2013-6-9,81.0,70.3,64.0,70.0,63.2,61.0,94,78,54,29.93,29.87,8,1,0,0.00
2013-6-10,88.0,75.8,64.0,77.0,68.8,61.0,100,79,62,29.95,29.88,8,-76,0,0.00
2013-6-11,90.0,81.0,73.0,73.0,70.5,66.0,83,70,52,30.02,29.94,15,7,24,0.00
2013-6-12,90.0,81.0,73.0,73.0,72.1,70.0,94,74,55,30.00,29.92,18,11,30,0.00
2013-6-13,86.0,76.8,70.0,73.0,69.4,64.0,100,78,58,30.07,29.97,9,2,0,0.00
2013-6-14,88.0,78.9,68.0,79.0,72.7,66.0,94,82,66,30.06,29.96,7,3,0,0.00
2013-6-15,88.0,74.3,68.0,77.0,70.9,66.0,100,89,70,30.05,29.97,13,5,18,0.00
2013-6-16,86.0,75.9,66.0,77.0,72.0,66.0,100,88,66,30.03,29.95,9,4,0,0.00
2013-6-17,75.0,69.1,66.0,70.0,67.5,64.0,100,95,83,30.00,29.92,9,4,0,0.00
2013-6-18,84.0,73.1,63.0,72.0,66.8,63.0,100,83,54,30.06,29.98,7,1,0,0.00
2013-6-19,82.0,74.5,63.0,73.0,67.5,63.0,100,79,58,30.08,30.00,8,2,0,0.00
2013-6-20,88.0,74.5,66.0,75.0,68.2,64.0,93,82,62,30.10,30.04,14,6,20,0.00
2013-6-22,86.0,82.3,75.0,75.0,73.4,72.0,88,75,66,30.09,29.96,13,7,21,0.00
2013-6-23,88.0,79.5,72.0,75.0,72.7,70.0,100,81,62,30.03,29.94,16,8,29,0.00
2013-6-24,90.0,79.9,72.0,75.0,71.7,70.0,94,77,55,30.07,29.97,21,9,31,0.00
2013-6-25,88.0,80.1,73.0,73.0,71.6,70.0,94,75,55,30.01,29.87,21,13,32,0.00
2013-6-26,90.0,82.8,75.0,79.0,74.5,70.0,94,76,62,29.97,29.86,18,-19,30,0.00
2013-6-27,93.0,83.6,72.0,81.0,76.5,72.0,100,80,56,30.01,29.91,7,1,0,0.00
2013-6-28,90.0,80.4,72.0,79.0,70.1,61.0,100,72,46,30.00,29.89,13,-36,17,0.00
2013-6-29,84.0,74.5,64.0,64.0,58.8,55.0,88,60,37,29.93,29.85,15,-288,28,0.00
2013-6-30,79.0,69.1,61.0,64.0,61.4,57.0,93,76,60,30.01,29.88,14,-47,20,0.00
2013-7-1,79.0,69.3,61.0,63.0,58.7,46.0,100,72,31,30.08,30.01,15,6,22,0.00
2013-7-2,81.0,68.8,55.0,59.0,54.9,52.0,93,64,39,30.12,30.05,14,5,21,0.00
2013-7-3,81.0,72.6,57.0,63.0,58.3,54.0,93,63,41,30.14,30.04,8,-10,0,0.00
2013-7-4,84.0,73.0,63.0,64.0,59.8,55.0,82,64,42,30.09,30.00,8,4,0,0.00
2013-7-5,88.0,75.5,63.0,64.0,61.2,57.0,82,62,40,30.06,29.96,12,6,18,0.00
2013-7-6,84.0,73.1,66.0,72.0,64.5,59.0,88,74,54,30.07,29.98,9,4,0,0.00
2013-7-7,90.0,79.2,72.0,72.0,67.8,64.0,88,69,45,30.08,30.01,13,7,18,0.00
2013-7-8,91.0,78.9,70.0,73.0,68.2,-99.9,94,73,52,30.13,30.06,12,6,18,0.00
2013-7-9,93.0,82.7,72.0,73.0,72.1,70.0,94,72,49,30.11,29.99,14,6,21,0.00
2013-7-10,95.0,83.3,73.0,73.0,68.9,-99.9,88,65,43,30.05,29.95,10,3,15,0.00
2013-7-11,91.0,81.9,73.0,77.0,70.8,63.0,100,72,38,30.06,29.97,13,6,18,0.00
2013-7-12,91.0,79.6,70.0,72.0,66.6,61.0,82,65,49,30.07,30.01,14,7,20,0.00
2013-7-13,90.0,77.4,66.0,66.0,60.7,55.0,68,57,45,30.09,30.00,12,5,0,0.00
2013-7-14,88.0,76.8,66.0,64.0,59.3,54.0,82,57,33,30.09,30.00,10,6,17,0.00
2013-7-15,90.0,76.7,70.0,72.0,66.3,57.0,100,71,43,30.20,30.09,13,-15,20,0.00
2013-7-16,90.0,76.8,68.0,73.0,71.1,68.0,100,84,52,30.29,30.19,12,2,0,0.00
2013-7-17,91.0,81.6,72.0,73.0,70.2,68.0,100,70,46,30.35,30.23,9,3,0,0.00
2013-7-18,93.0,82.9,72.0,72.0,68.9,64.0,88,65,38,30.25,30.07,6,-10,0,0.00
2013-7-19,93.0,81.7,70.0,73.0,70.2,66.0,94,70,41,30.08,29.95,10,2,0,0.00
2013-7-20,93.0,77.8,68.0,73.0,69.1,-99.9,100,78,46,30.02,29.87,17,4,24,0.00
2013-7-21,82.0,73.4,68.0,75.0,72.2,68.0,100,96,78,29.99,29.89,9,-36,0,0.00
2013-7-22,86.0,74.5,66.0,75.0,69.7,64.0,100,86,54,29.97,29.87,14,6,22,0.00
2013-7-23,93.0,83.2,73.0,79.0,74.6,70.0,94,76,56,29.95,29.85,16,4,23,0.00
2013-7-24,84.0,75.5,70.0,73.0,70.7,66.0,100,85,65,30.05,29.87,24,6,35,0.00
2013-7-25,82.0,75.2,66.0,72.0,67.7,64.0,93,78,58,30.13,30.05,8,2,0,0.00
2013-7-26,73.0,71.1,66.0,72.0,70.2,66.0,100,97,88,30.08,30.02,8,3,0,0.00
2013-7-27,77.0,68.9,63.0,66.0,63.5,61.0,100,84,57,30.10,30.01,10,-26,0,0.00
2013-7-28,72.0,66.2,63.0,68.0,63.8,61.0,100,91,82,30.08,30.02,8,3,0,0.00
2013-7-29,82.0,73.6,66.0,77.0,70.0,64.0,100,89,78,30.09,30.00,14,8,21,0.00
2013-7-30,82.0,75.9,70.0,77.0,73.7,70.0,100,93,78,30.07,30.01,13,4,22,0.00
2013-7-31,84.0,78.1,72.0,79.0,74.2,70.0,100,88,70,30.10,30.04,13,4,17,0.00
2013-8-1,84.0,76.0,66.0,72.0,69.4,66.0,100,81,58,30.13,30.01,8,2,0,0.00
2013-8-2,84.0,76.2,70.0,79.0,74.1,68.0,100,93,83,30.03,29.90,12,7,21,0.00
2013-8-3,88.0,77.7,68.0,79.0,74.2,68.0,100,90,66,30.12,29.93,15,5,33,0.00
2013-8-4,75.0,72.5,70.0,75.0,72.4,70.0,100,100,94,30.17,30.04,10,4,0,0.00
2013-8-5,90.0,78.4,72.0,81.0,75.6,70.0,100,92,74,30.06,29.89,12,6,17,0.00
2013-8-6,88.0,79.8,72.0,81.0,76.5,72.0,100,90,74,29.95,29.85,12,6,16,0.00
2013-8-7,81.0,76.7,73.0,79.0,75.0,72.0,100,95,83,29.98,29.85,14,5,20,0.00
2013-8-8,82.0,74.9,68.0,77.0,73.0,68.0,100,94,78,30.01,29.89,16,5,21,0.00
2013-8-9,81.0,73.5,66.0,75.0,71.5,66.0,100,94,78,30.08,29.96,14,4,18,0.00
2013-8-10,81.0,73.1,66.0,73.0,69.6,66.0,100,89,73,30.16,30.08,14,8,21,0.00
2013-8-11,86.0,76.0,68.0,75.0,72.3,68.0,100,89,70,30.13,30.05,7,2,0,0.00
2013-8-12,81.0,74.2,70.0,75.0,72.8,70.0,100,96,78,30.11,30.00,8,1,0,0.00
2013-8-13,79.0,72.0,66.0,75.0,68.9,-99.9,100,94,83,30.10,30.03,9,2,0,0.00
2013-8-14,66.0,64.7,63.0,64.0,63.5,63.0,100,95,93,30.13,30.10,6,4,0,0.00
2013-10-3,81.0,75.8,72.0,72.0,70.1,68.0,94,82,69,29.91,29.87,14,10,21,0.00
2013-10-4,82.0,74.0,70.0,73.0,70.0,66.0,100,88,65,29.95,29.88,18,10,24,0.00
2013-10-5,72.0,57.0,46.0,70.0,54.4,45.0,100,91,71,30.07,29.93,15,-12,23,0.00
2013-10-6,61.0,51.8,43.0,48.0,44.4,39.0,93,77,55,30.03,29.95,12,3,21,0.00
2013-10-7,70.0,55.1,45.0,54.0,46.7,43.0,100,77,43,30.17,30.03,7,1,0,0.00
2013-10-8,72.0,60.3,50.0,54.0,51.2,48.0,93,74,49,30.16,30.07,14,4,22,0.00
2013-10-9,73.0,60.5,50.0,54.0,50.8,46.0,93,72,43,30.14,30.06,10,4,0,0.00
2013-10-10,75.0,62.0,52.0,61.0,55.4,48.0,93,79,53,30.11,29.95,10,5,0,0.00
2013-10-11,73.0,65.5,57.0,68.0,62.2,55.0,100,90,78,29.94,29.87,21,11,30,0.00
2013-10-12,70.0,61.8,57.0,66.0,57.3,-99.9,100,89,64,30.20,29.91,16,7,30,0.00
2013-10-13,70.0,61.6,55.0,54.0,52.3,48.0,87,71,56,30.34,30.20,13,8,16,0.00
2013-10-14,63.0,58.6,57.0,63.0,53.4,48.0,100,82,71,30.27,29.96,20,9,28,0.00
2013-10-15,63.0,56.6,52.0,63.0,55.8,50.0,100,97,87,30.08,29.91,20,6,28,0.00
2013-10-16,57.0,49.5,41.0,48.0,44.8,41.0,100,84,66,30.14,30.03,9,-251,0,0.00
2013-10-17,61.0,51.2,41.0,48.0,45.5,41.0,100,83,58,30.07,29.99,8,2,0,0.00
2013-10-18,54.0,46.3,39.0,48.0,44.2,39.0,100,92,76,30.09,30.00,13,-28,17,0.00
2013-10-19,55.0,42.2,36.0,43.0,36.8,-99.9,100,86,54,30.12,30.01,10,4,17,0.00
2013-10-20,66.0,53.0,43.0,46.0,42.8,39.0,86,70,42,30.02,29.89,15,6,23,0.00
2013-10-21,55.0,49.0,43.0,46.0,42.0,37.0,93,77,54,30.12,29.96,14,3,20,0.00
2013-10-22,66.0,49.5,36.0,50.0,41.0,36.0,100,75,42,30.08,29.96,14,-33,21,0.00
2013-10-28,66.0,55.8,43.0,59.0,51.6,-99.9,100,89,68,30.16,30.02,12,4,17,0.00
2013-10-29,66.0,62.1,55.0,66.0,62.0,55.0,100,100,93,30.15,29.99,17,10,24,0.00
2013-10-30,66.0,64.7,63.0,66.0,64.7,63.0,100,100,100,30.05,29.84,20,11,31,0.00
2013-10-31,70.0,58.6,48.0,66.0,57.8,48.0,100,97,73,29.83,29.53,15,7,23,0.00
2013-11-1,63.0,52.0,43.0,52.0,46.2,43.0,100,82,55,30.01,29.76,6,2,0,0.00
2013-11-2,54.0,46.2,37.0,45.0,38.3,-99.9,100,77,54,30.21,30.01,12,3,17,0.00
2013-11-3,59.0,45.5,36.0,45.0,39.9,34.0,100,81,54,30.19,30.02,18,9,28,0.00
2013-11-11,63.0,53.8,39.0,54.0,48.0,37.0,93,80,72,30.40,30.19,17,5,30,0.00
2013-11-12,39.0,30.8,25.0,37.0,20.3,16.0,93,66,43,30.72,30.42,21,10,27,0.00
2013-11-13,48.0,33.5,21.0,23.0,18.0,12.0,79,55,31,30.64,30.27,14,6,18,0.00
2013-11-14,50.0,41.4,30.0,30.0,24.1,19.0,68,51,34,30.27,30.02,20,10,28,0.00
2013-11-15,61.0,49.6,43.0,50.0,42.6,32.0,100,78,57,30.03,29.84,16,9,23,0.00
2013-11-16,70.0,61.2,52.0,64.0,56.6,-99.9,100,88,73,29.85,29.61,30,20,41,0.00
2013-11-17,70.0,65.1,54.0,66.0,46.3,21.0,88,55,26,30.10,29.55,27,13,40,0.00
2013-11-18,59.0,48.3,37.0,37.0,31.8,25.0,86,55,32,30.26,30.06,12,4,16,0.00
2013-11-19,57.0,50.7,45.0,30.0,27.2,21.0,56,41,30,30.24,30.04,18,10,25,0.00
2013-11-20,57.0,52.0,46.0,39.0,28.0,16.0,54,39,25,30.04,29.90,22,13,32,0.00
2013-11-21,55.0,50.6,36.0,52.0,48.0,36.0,100,92,54,30.27,29.97,16,6,23,0.00
2013-11-22,36.0,30.4,28.0,36.0,29.4,27.0,100,96,86,30.49,30.27,17,12,22,0.00
2013-11-23,37.0,29.0,19.0,28.0,20.2,-99.9,92,73,53,30.62,30.48,16,11,22,0.00
2013-11-24,30.0,23.0,16.0,16.0,11.8,9.0,78,62,46,30.62,30.30,10,8,18,0.00
2013-11-25,34.0,31.6,28.0,30.0,24.3,16.0,92,74,54,30.31,30.16,8,2,0,0.00
2013-11-26,43.0,33.6,27.0,30.0,25.7,16.0,92,73,56,30.32,30.12,18,7,27,0.00
2013-11-27,36.0,24.5,18.0,18.0,12.5,10.0,79,61,37,30.38,30.25,13,3,18,0.00
2013-11-28,52.0,36.6,25.0,34.0,23.3,14.0,74,59,41,30.41,30.22,15,-29,21,0.00
2013-11-29,52.0,39.5,28.0,34.0,27.5,25.0,86,64,37,30.46,30.27,13,5,20,0.00
2013-11-30,57.0,46.4,36.0,46.0,38.2,-99.9,100,75,66,30.29,30.11,21,9,30,0.00
2013-12-1,52.0,46.6,39.0,52.0,46.6,39.0,100,100,100,30.12,29.89,5,0,0,0.00
2013-12-2,63.0,48.6,37.0,54.0,46.2,37.0,100,92,63,29.90,29.68,12,2,16,0.00
2013-12-3,66.0,52.7,41.0,55.0,48.5,41.0,100,87,55,29.66,29.56,13,5,18,0.00
2013-12-4,54.0,44.5,28.0,48.0,42.6,27.0,100,94,81,29.95,29.54,13,8,17,0.00
2013-12-5,28.0,22.1,19.0,25.0,17.9,12.0,92,82,67,30.23,29.97,13,9,18,0.00
2013-12-6,19.0,17.0,12.0,16.0,11.4,1.0,92,79,61,30.49,30.19,18,12,22,0.00
2013-12-7,19.0,12.5,5.0,12.0,2.6,-99.9,78,67,56,30.56,30.26,16,10,22,0.00
2013-12-8,28.0,23.5,19.0,28.0,21.3,12.0,100,91,67,30.26,29.96,12,7,0,0.00
2013-12-9,27.0,20.5,16.0,25.0,17.3,12.0,92,86,67,30.30,30.12,12,6,16,0.00
2013-12-12,39.0,27.4,14.0,27.0,18.4,9.0,80,68,60,30.54,30.23,13,7,20,0.00
2013-12-13,36.0,34.1,30.0,36.0,31.7,25.0,100,91,74,30.23,29.82,20,8,30,0.00
2013-12-14,36.0,29.7,23.0,36.0,27.6,-99.9,100,95,85,30.20,29.82,16,7,22,0.00
2013-12-15,52.0,34.2,19.0,37.0,29.3,18.0,100,83,57,30.20,30.08,14,7,20,0.00
2013-12-16,61.0,45.4,37.0,39.0,35.4,34.0,86,69,41,30.12,30.04,13,6,16,0.00
2013-12-17,54.0,42.8,30.0,37.0,31.4,27.0,92,66,46,30.28,30.11,16,4,22,0.00
2013-12-18,61.0,50.7,34.0,43.0,36.6,28.0,80,60,44,30.25,29.92,24,14,33,0.00
2013-12-19,61.0,55.2,52.0,55.0,50.7,41.0,93,84,62,29.93,29.71,24,17,46,0.00
2013-12-20,63.0,39.9,28.0,61.0,39.3,28.0,100,98,87,29.90,29.70,21,8,29,0.00
2013-12-21,32.0,30.9,28.0,32.0,30.9,28.0,100,100,100,29.81,29.49,0,0,0,0.00
2013-12-22,32.0,27.8,25.0,32.0,26.8,21.0,100,96,85,30.30,29.69,0,0,0,0.00
2013-12-23,25.0,20.7,16.0,21.0,17.6,12.0,92,87,79,30.53,30.31,0,0,0,0.00
2013-12-24,39.0,25.2,12.0,32.0,20.7,10.0,92,83,69,30.50,30.19,16,3,20,0.00
2013-12-25,39.0,32.3,28.0,34.0,29.5,27.0,100,88,80,30.35,30.24,7,1,0,0.00
2013-12-26,48.0,33.7,23.0,37.0,27.6,21.0,100,80,52,30.35,30.26,16,4,21,0.00
2013-12-27,55.0,40.5,30.0,36.0,31.2,27.0,93,71,47,30.37,30.27,13,7,18,0.00
2013-12-28,54.0,41.2,32.0,39.0,31.0,-99.9,86,71,46,30.27,29.92,12,6,18,0.00
2013-12-29,43.0,27.9,19.0,37.0,22.3,9.0,92,79,67,30.24,29.92,15,8,23,0.00
2013-12-30,36.0,22.3,10.0,19.0,12.7,3.0,79,66,51,30.29,30.18,9,4,0,0.00
2013-12-31,52.0,36.0,21.0,30.0,23.2,16.0,85,61,34,30.32,30.13,18,8,24,0.00
2014-1-1,54.0,38.8,19.0,36.0,26.8,16.0,92,63,40,30.13,29.88,18,8,22,0.00
2014-1-2,21.0,13.4,7.0,14.0,6.1,1.0,85,73,57,30.41,30.14,14,5,22,0.00